Time,TemperatureF,DewpointF,PressureIn,WindDirection,WindDirectionDegrees,WindSpeedMPH,WindSpeedGustMPH,Humidity,HourlyPrecipIn,Conditions,Clouds,dailyrainin,SolarRadiationWatts/m^2,SoftwareType,DateUTC
2013-09-07 00:02:00,52.0,48.0,-100.00,WSW,257,0.0,3.0,85,0.00,,,0.27,0.000000,,2013-09-07 07:02:00,
2013-09-07 00:12:00,52.0,48.0,-100.00,WSW,257,0.0,3.0,85,0.00,,,0.27,0.000000,,2013-09-07 07:12:00,
2013-09-07 00:43:00,53.0,47.0,-100.00,WNW,296,0.0,2.0,81,0.00,,,0.27,0.000000,,2013-09-07 07:43:00,
2013-09-07 00:52:00,53.0,47.0,-100.00,WNW,296,0.0,2.0,81,0.00,,,0.27,0.000000,,2013-09-07 07:52:00,
2013-09-07 01:02:00,53.0,47.0,-100.00,WNW,296,0.0,2.0,81,0.00,,,0.27,0.000000,,2013-09-07 08:02:00,
2013-09-07 01:12:00,53.0,47.0,-100.00,WNW,296,0.0,2.0,81,0.00,,,0.27,0.000000,,2013-09-07 08:12:00,
2013-09-07 01:43:00,51.0,47.0,-100.00,NNW,339,0.0,3.0,87,0.00,,,0.27,0.000000,,2013-09-07 08:43:00,
2013-09-07 01:53:00,51.0,47.0,-100.00,NNW,339,0.0,3.0,87,0.00,,,0.27,0.000000,,2013-09-07 08:53:00,
2013-09-07 02:01:00,51.0,47.0,-100.00,NNW,339,0.0,3.0,87,0.00,,,0.27,0.000000,,2013-09-07 09:01:00,
2013-09-07 02:12:00,51.0,47.0,-100.00,NNW,339,0.0,3.0,87,0.00,,,0.27,0.000000,,2013-09-07 09:12:00,
2013-09-07 02:42:00,51.0,48.0,-100.00,SW,226,0.0,3.0,90,0.00,,,0.27,0.000000,,2013-09-07 09:42:00,
2013-09-07 02:52:00,51.0,48.0,-100.00,SW,226,0.0,3.0,90,0.00,,,0.27,0.000000,,2013-09-07 09:52:00,
2013-09-07 03:01:00,51.0,48.0,-100.00,SW,226,0.0,3.0,90,0.00,,,0.27,0.000000,,2013-09-07 10:01:00,
2013-09-07 03:11:00,51.0,48.0,-100.00,SW,226,0.0,3.0,90,0.00,,,0.27,0.000000,,2013-09-07 10:11:00,
2013-09-07 03:41:00,51.0,48.0,-100.00,SW,219,0.0,1.0,89,0.00,,,0.26,0.000000,,2013-09-07 10:41:00,
2013-09-07 03:51:00,51.0,48.0,-100.00,SW,219,0.0,1.0,89,0.00,,,0.26,0.000000,,2013-09-07 10:51:00,
2013-09-07 04:03:00,51.0,48.0,-100.00,SW,219,0.0,1.0,89,0.00,,,0.26,0.000000,,2013-09-07 11:03:00,
2013-09-07 04:13:00,51.0,48.0,-100.00,SW,219,0.0,1.0,89,0.00,,,0.26,0.000000,,2013-09-07 11:13:00,
2013-09-07 04:43:00,51.0,49.0,-100.00,WNW,284,0.0,2.0,93,0.00,,,0.21,0.000000,,2013-09-07 11:43:00,
2013-09-07 04:52:00,51.0,49.0,-100.00,WNW,284,0.0,2.0,93,0.00,,,0.21,0.000000,,2013-09-07 11:52:00,
2013-09-07 05:02:00,51.0,49.0,-100.00,WNW,284,0.0,2.0,93,0.00,,,0.21,0.000000,,2013-09-07 12:02:00,
2013-09-07 05:12:00,51.0,49.0,-100.00,WNW,284,0.0,2.0,93,0.00,,,0.21,0.000000,,2013-09-07 12:12:00,
2013-09-07 05:42:00,52.0,49.0,-100.00,NW,311,0.0,2.0,89,0.00,,,0.16,0.000000,,2013-09-07 12:42:00,
2013-09-07 05:52:00,52.0,49.0,-100.00,NW,311,0.0,2.0,89,0.00,,,0.16,0.000000,,2013-09-07 12:52:00,
2013-09-07 06:02:00,52.0,49.0,-100.00,NW,311,0.0,2.0,89,0.00,,,0.16,0.000000,,2013-09-07 13:02:00,
2013-09-07 06:11:00,52.0,49.0,-100.00,NW,311,0.0,2.0,89,0.00,,,0.16,0.000000,,2013-09-07 13:11:00,
2013-09-07 06:42:00,51.0,48.0,-100.00,NNW,329,2.0,3.0,88,0.00,,,0.11,0.000000,,2013-09-07 13:42:00,
2013-09-07 06:52:00,51.0,48.0,-100.00,NNW,329,2.0,3.0,88,0.00,,,0.11,0.000000,,2013-09-07 13:52:00,
2013-09-07 07:02:00,51.0,48.0,-100.00,NNW,329,2.0,3.0,88,0.00,,,0.11,0.000000,,2013-09-07 14:02:00,
2013-09-07 07:11:00,51.0,48.0,-100.00,NNW,329,2.0,3.0,88,0.00,,,0.11,0.000000,,2013-09-07 14:11:00,
2013-09-07 07:42:00,51.0,48.0,-100.00,NNW,335,0.0,3.0,89,0.00,,,0.06,9.000000,,2013-09-07 14:42:00,
2013-09-07 07:52:00,51.0,48.0,-100.00,NNW,335,0.0,3.0,89,0.00,,,0.06,9.000000,,2013-09-07 14:52:00,
2013-09-07 08:02:00,51.0,48.0,-100.00,NNW,335,0.0,3.0,89,0.00,,,0.06,9.000000,,2013-09-07 15:02:00,
2013-09-07 08:11:00,51.0,48.0,-100.00,NNW,335,0.0,3.0,89,0.00,,,0.06,9.000000,,2013-09-07 15:11:00,
2013-09-07 08:44:00,56.0,50.0,-100.00,South,183,0.0,3.0,79,0.00,,,0.00,57.000000,,2013-09-07 15:44:00,
2013-09-07 08:54:00,56.0,50.0,-100.00,South,183,0.0,3.0,79,0.00,,,0.00,57.000000,,2013-09-07 15:54:00,
2013-09-07 09:03:00,56.0,50.0,-100.00,South,183,0.0,3.0,79,0.00,,,0.00,57.000000,,2013-09-07 16:03:00,
2013-09-07 09:12:00,56.0,50.0,-100.00,South,183,0.0,3.0,79,0.00,,,0.00,57.000000,,2013-09-07 16:12:00,
2013-09-07 09:43:00,62.0,51.0,-100.00,SSE,164,1.0,5.0,66,0.00,,,0.00,297.000000,,2013-09-07 16:43:00,
2013-09-07 09:53:00,62.0,51.0,-100.00,SSE,164,1.0,5.0,66,0.00,,,0.00,297.000000,,2013-09-07 16:53:00,
2013-09-07 10:04:00,62.0,51.0,-100.00,SSE,164,1.0,5.0,66,0.00,,,0.00,297.000000,,2013-09-07 17:04:00,
2013-09-07 10:12:00,62.0,51.0,-100.00,SSE,164,1.0,5.0,66,0.00,,,0.00,297.000000,,2013-09-07 17:12:00,
2013-09-07 10:43:00,64.0,51.0,-100.00,East,87,2.0,7.0,63,0.00,,,0.00,521.000000,,2013-09-07 17:43:00,
2013-09-07 10:52:00,64.0,51.0,-100.00,East,87,2.0,7.0,63,0.00,,,0.00,521.000000,,2013-09-07 17:52:00,
2013-09-07 11:01:00,64.0,51.0,-100.00,East,87,2.0,7.0,63,0.00,,,0.00,521.000000,,2013-09-07 18:01:00,
2013-09-07 11:12:00,64.0,51.0,-100.00,East,87,2.0,7.0,63,0.00,,,0.00,521.000000,,2013-09-07 18:12:00,
2013-09-07 11:43:00,65.0,50.0,-100.00,NE,53,3.0,8.0,59,0.00,,,0.00,681.000000,,2013-09-07 18:43:00,
2013-09-07 11:52:00,65.0,50.0,-100.00,NE,53,3.0,8.0,59,0.00,,,0.00,681.000000,,2013-09-07 18:52:00,
2013-09-07 12:02:00,65.0,50.0,-100.00,NE,53,3.0,8.0,59,0.00,,,0.00,681.000000,,2013-09-07 19:02:00,
2013-09-07 12:11:00,65.0,50.0,-100.00,NE,53,3.0,8.0,59,0.00,,,0.00,681.000000,,2013-09-07 19:11:00,
2013-09-07 12:42:00,68.0,51.0,-100.00,ESE,112,3.0,8.0,55,0.00,,,0.00,727.000000,,2013-09-07 19:42:00,
2013-09-07 12:52:00,68.0,51.0,-100.00,ESE,112,3.0,8.0,55,0.00,,,0.00,727.000000,,2013-09-07 19:52:00,
2013-09-07 13:02:00,68.0,51.0,-100.00,ESE,112,3.0,8.0,55,0.00,,,0.00,727.000000,,2013-09-07 20:02:00,
2013-09-07 13:11:00,68.0,51.0,-100.00,ESE,112,3.0,8.0,55,0.00,,,0.00,727.000000,,2013-09-07 20:11:00,
2013-09-07 13:42:00,69.0,51.0,-100.00,ENE,60,3.0,9.0,53,0.00,,,0.00,782.000000,,2013-09-07 20:42:00,
2013-09-07 13:53:00,69.0,51.0,-100.00,ENE,60,3.0,9.0,53,0.00,,,0.00,782.000000,,2013-09-07 20:53:00,
2013-09-07 14:02:00,69.0,51.0,-100.00,ENE,60,3.0,9.0,53,0.00,,,0.00,782.000000,,2013-09-07 21:02:00,
2013-09-07 14:12:00,69.0,51.0,-100.00,ENE,60,3.0,9.0,53,0.00,,,0.00,782.000000,,2013-09-07 21:12:00,
2013-09-07 14:44:00,70.0,50.0,-100.00,ENE,69,3.0,10.0,50,0.00,,,0.00,762.000000,,2013-09-07 21:44:00,
2013-09-07 14:54:00,70.0,50.0,-100.00,ENE,69,3.0,10.0,50,0.00,,,0.00,762.000000,,2013-09-07 21:54:00,
2013-09-07 15:04:00,70.0,50.0,-100.00,ENE,69,3.0,10.0,50,0.00,,,0.00,762.000000,,2013-09-07 22:04:00,
2013-09-07 15:13:00,70.0,50.0,-100.00,ENE,69,3.0,10.0,50,0.00,,,0.00,762.000000,,2013-09-07 22:13:00,
2013-09-07 15:43:00,72.0,51.0,-100.00,ENE,77,3.0,11.0,47,0.00,,,0.00,693.000000,,2013-09-07 22:43:00,
2013-09-07 15:53:00,72.0,51.0,-100.00,ENE,77,3.0,11.0,47,0.00,,,0.00,693.000000,,2013-09-07 22:53:00,
2013-09-07 16:03:00,72.0,51.0,-100.00,ENE,77,3.0,11.0,47,0.00,,,0.00,693.000000,,2013-09-07 23:03:00,
2013-09-07 16:12:00,72.0,51.0,-100.00,ENE,77,3.0,11.0,47,0.00,,,0.00,693.000000,,2013-09-07 23:12:00,
2013-09-07 16:42:00,73.0,52.0,-100.00,ENE,74,3.0,10.0,48,0.00,,,0.00,582.000000,,2013-09-07 23:42:00,
2013-09-07 16:53:00,73.0,52.0,-100.00,ENE,74,3.0,10.0,48,0.00,,,0.00,582.000000,,2013-09-07 23:53:00,
2013-09-07 17:02:00,73.0,52.0,-100.00,ENE,74,3.0,10.0,48,0.00,,,0.00,582.000000,,2013-09-08 00:02:00,
2013-09-07 17:11:00,73.0,52.0,-100.00,ENE,74,3.0,10.0,48,0.00,,,0.00,582.000000,,2013-09-08 00:11:00,
2013-09-07 17:43:00,71.0,52.0,-100.00,ENE,58,4.0,9.0,52,0.00,,,0.00,426.000000,,2013-09-08 00:43:00,
2013-09-07 17:52:00,71.0,52.0,-100.00,ENE,58,4.0,9.0,52,0.00,,,0.00,426.000000,,2013-09-08 00:52:00,
2013-09-07 18:01:00,71.0,52.0,-100.00,ENE,58,4.0,9.0,52,0.00,,,0.00,426.000000,,2013-09-08 01:01:00,
2013-09-07 18:11:00,71.0,52.0,-100.00,ENE,58,4.0,9.0,52,0.00,,,0.00,426.000000,,2013-09-08 01:11:00,
2013-09-07 18:42:00,68.0,52.0,-100.00,ENE,78,2.0,9.0,57,0.00,,,0.00,228.000000,,2013-09-08 01:42:00,
2013-09-07 18:52:00,68.0,52.0,-100.00,ENE,78,2.0,9.0,57,0.00,,,0.00,228.000000,,2013-09-08 01:52:00,
2013-09-07 19:02:00,68.0,52.0,-100.00,ENE,78,2.0,9.0,57,0.00,,,0.00,228.000000,,2013-09-08 02:02:00,
2013-09-07 19:11:00,68.0,52.0,-100.00,ENE,78,2.0,9.0,57,0.00,,,0.00,228.000000,,2013-09-08 02:11:00,
2013-09-07 19:43:00,63.0,52.0,-100.00,ENE,57,1.0,8.0,67,0.00,,,0.00,21.000000,,2013-09-08 02:43:00,
2013-09-07 19:52:00,63.0,52.0,-100.00,ENE,57,1.0,8.0,67,0.00,,,0.00,21.000000,,2013-09-08 02:52:00,
2013-09-07 20:02:00,63.0,52.0,-100.00,ENE,57,1.0,8.0,67,0.00,,,0.00,21.000000,,2013-09-08 03:02:00,
2013-09-07 20:12:00,63.0,52.0,-100.00,ENE,57,1.0,8.0,67,0.00,,,0.00,21.000000,,2013-09-08 03:12:00,
2013-09-07 20:44:00,60.0,51.0,-100.00,West,277,1.0,5.0,71,0.00,,,0.00,2.000000,,2013-09-08 03:44:00,
2013-09-07 20:54:00,60.0,51.0,-100.00,West,277,1.0,5.0,71,0.00,,,0.00,2.000000,,2013-09-08 03:54:00,
2013-09-07 21:02:00,-999.0,-99.9,-100.00,West,277,1.0,5.0,-999,-99.99,,,-99.99,2.000000,,2013-09-08 04:02:00,
2013-09-07 21:14:00,60.0,51.0,-100.00,West,277,1.0,5.0,71,0.00,,,0.00,2.000000,,2013-09-08 04:14:00,
2013-09-07 21:43:00,59.0,50.0,-100.00,NW,304,1.0,3.0,72,0.00,,,0.00,0.000000,,2013-09-08 04:43:00,
2013-09-07 21:54:00,59.0,50.0,-100.00,NW,304,1.0,3.0,72,0.00,,,0.00,0.000000,,2013-09-08 04:54:00,
2013-09-07 22:03:00,59.0,50.0,-100.00,NW,304,1.0,3.0,72,0.00,,,0.00,0.000000,,2013-09-08 05:03:00,
2013-09-07 22:12:00,59.0,50.0,-100.00,NW,304,1.0,3.0,72,0.00,,,0.00,0.000000,,2013-09-08 05:12:00,
2013-09-07 22:43:00,59.0,51.0,-100.00,NW,323,1.0,4.0,76,0.00,,,0.00,0.000000,,2013-09-08 05:43:00,
2013-09-07 22:52:00,59.0,51.0,-100.00,NW,323,1.0,4.0,76,0.00,,,0.00,0.000000,,2013-09-08 05:52:00,
2013-09-07 23:02:00,59.0,51.0,-100.00,NW,323,1.0,4.0,76,0.00,,,0.00,0.000000,,2013-09-08 06:02:00,
2013-09-07 23:12:00,59.0,51.0,-100.00,NW,323,1.0,4.0,76,0.00,,,0.00,0.000000,,2013-09-08 06:12:00,
2013-09-07 23:42:00,58.0,50.0,-100.00,NNW,335,0.0,3.0,74,0.00,,,0.00,0.000000,,2013-09-08 06:42:00,
2013-09-07 23:53:00,58.0,50.0,-100.00,NNW,335,0.0,3.0,74,0.00,,,0.00,0.000000,,2013-09-08 06:53:00,